Location: Spruce Knob
(38.6995°N, 79.5330°W)
Time: 07:03:33
(UTC-05:00)

X-37B - Pass Details

Date: 26 November 2022
Orbit: 277 x 277 km, 45.0° (Epoch: 01 November)

Event Time Altitude Azimuth Distance (km) Brightness Sun altitude
Exits shadow 05:26:42 16° 159° (SSE) 833 2.6 -20.3°
Drops below altitude 10° 05:27:25 10° 149° (SSE) 1,089 3.4 -20.1°
Sets 05:29:26 0° 138° (SE) 1,897 5.0 -19.7°
